Wind_Speed
7 10 9 8 8 9 9 10 9 9 10 10 11 11 12 12 11 11 11 10 10 12 11 11 13 13 12 12 13 13 14 15 14 15 15 15 15 15 15 17 15 16 17
8 10 9 8 7 7 8 8 8 9 9 11 11 11 12 13 11 11 11 11 10 10 10 10 11 12 13 13 14 12 12 13 13 12 13 14 13 13 11 10 15 16 16
10 8 9 7 5 5 6 6 7 8 9 10 10 12 11 11 12 11 10 11 10 9 12 11 11 13 14 13 12 11 11 13 13 12 14 10 9 11 13 14 15 16 15
10 10 9 6 5 4 4 5 5 7 8 9 11 11 12 12 14 12 11 12 11 10 10 12 12 12 11 10 10 11 12 12 12 11 6 9 9 9 11 11 13 14 14
9 8 6 5 4 3 3 4 5 6 7 9 10 12 11 12 13 12 12 13 13 12 11 11 12 11 9 10 10 11 12 12 12 6 5 10 10 10 15 11 17 12 13
8 7 5 4 2 3 2 4 5 8 8 8 10 12 12 13 13 12 12 13 14 14 13 11 11 9 9 10 11 11 11 12 10 5 7 8 11 12 14 15 17 17 17
6 6 5 4 4 2 5 4 6 7 9 9 10 11 12 14 13 11 13 14 14 14 14 12 11 10 10 11 11 11 11 11 8 7 6 11 11 11 11 12 12 12 12
4 3 3 1 1 2 3 5 6 7 9 10 11 12 12 14 15 15 15 15 15 14 15 14 13 11 12 11 11 11 10 11 8 7 9 13 13 11 10 10 10 10 10
4 3 2 2 2 2 2 3 6 9 9 11 11 13 14 13 14 15 16 16 17 16 15 15 14 13 14 12 11 10 10 11 8 7 10 11 12 10 8 7 8 9 10
5 5 5 5 5 5 4 6 6 7 11 12 12 13 14 15 15 14 15 16 17 18 17 16 15 15 16 15 12 10 9 13 9 12 9 9 10 8 7 4 7 8 8
8 6 7 7 8 7 7 8 7 6 8 11 14 14 14 15 15 15 16 16 18 19 18 17 17 18 18 15 14 11 10 9 10 10 7 9 8 7 5 4 7 8 9
12 9 8 8 9 8 8 8 8 7 6 8 11 14 14 16 18 19 18 19 19 19 20 20 19 19 19 13 14 15 13 12 14 10 9 9 8 9 7 6 6 9 10
11 10 9 8 8 8 8 7 8 8 7 8 10 13 16 16 18 17 17 19 21 21 22 22 20 21 22 18 16 15 15 14 14 13 14 10 10 9 9 9 8 11 12
14 12 10 9 8 7 7 7 8 10 9 9 8 11 14 14 14 15 17 19 18 20 21 25 22 21 24 23 18 16 17 15 14 12 12 12 11 10 11 12 14 15 14
13 12 10 9 9 8 7 7 8 9 10 11 10 9 11 12 9 15 17 17 18 19 20 24 24 24 23 27 20 18 20 16 15 13 11 13 14 14 12 14 15 16 15
14 12 11 10 9 8 7 8 8 9 10 11 11 10 9 11 12 13 14 16 18 20 19 23 29 26 25 25 23 20 19 18 16 15 12 13 16 13 14 16 17 16 17
14 11 11 10 9 9 8 8 8 9 9 11 11 11 10 9 9 11 13 13 19 19 21 19 24 25 24 24 24 21 21 20 18 17 14 10 16 14 15 15 16 16 18
15 13 11 10 9 8 8 8 8 9 9 10 11 11 10 9 8 9 12 13 13 16 21 22 24 25 26 27 26 24 24 22 21 19 16 15 13 12 17 17 14 15 16
18 15 13 10 9 8 9 9 9 9 10 10 10 11 11 10 8 8 9 11 13 20 18 23 27 30 26 29 27 20 22 22 22 21 20 18 15 14 16 20 17 16 18
16 15 13 11 9 8 8 9 9 9 10 10 11 12 11 11 10 9 9 11 13 13 17 17 25 29 27 28 27 28 19 20 20 21 20 19 16 16 15 19 21 18 18
17 16 13 10 7 7 8 9 10 9 10 11 12 12 12 12 11 11 11 11 15 17 14 15 16 19 23 29 23 19 18 15 18 18 19 20 16 16 17 20 24 22 20
18 16 12 9 8 10 10 9 8 7 8 10 11 12 13 13 13 12 13 14 14 16 19 19 18 17 20 24 14 12 5 9 22 19 19 20 18 18 18 20 24 25 22
16 12 9 7 8 9 8 8 6 6 7 7 10 13 13 13 13 13 14 15 16 17 18 20 21 21 17 22 23 10 3 3 6 12 23 22 20 19 21 22 24 24 23
11 8 6 5 6 6 8 8 10 9 10 9 10 12 12 12 13 14 16 16 18 19 20 20 21 23 22 20 20 24 14 12 4 3 10 20 23 22 19 20 26 25 25
7 5 5 6 4 5 9 10 10 11 11 11 10 11 12 11 12 14 17 19 19 20 21 23 22 24 27 24 26 18 12 14 13 4 4 6 20 25 24 25 26 26 28
3 3 4 4 3 5 8 11 14 14 14 13 13 14 14 13 13 16 19 22 25 24 25 23 26 27 27 29 27 28 29 15 11 8 3 10 15 19 26 26 24 26 26
Wind_Direction
130 136 147 143 132 138 152 141 143 153 173 165 166 163 155 148 146 141 134 134 134 134 129 129 129 127 120 116 113 113 113 113 112 110 111 110 110 110 110 106 102 100 103
119 132 145 150 149 138 145 161 151 155 170 185 176 168 165 159 157 149 139 136 134 140 141 138 138 133 125 124 122 121 120 126 119 121 123 122 119 117 110 111 117 108 108
110 118 136 145 155 162 155 158 171 172 168 184 181 181 175 167 162 158 153 148 147 143 152 145 140 137 130 132 134 138 134 137 133 120 117 111 117 125 126 124 124 113 112
114 110 118 144 147 165 182 189 187 188 187 185 185 195 185 180 174 171 166 164 163 156 148 151 146 143 140 139 141 141 148 144 133 117 142 126 127 128 137 127 129 126 120
123 116 113 122 131 173 194 203 209 210 207 203 197 198 203 193 189 181 178 175 174 168 173 163 160 168 164 166 162 152 150 156 134 112 128 120 131 118 128 119 149 131 132
137 125 127 126 177 199 211 224 219 219 222 221 213 210 210 206 199 191 198 187 183 185 185 177 183 186 180 173 168 165 160 159 154 151 150 131 129 127 116 114 115 118 117
137 122 114 102 83 184 215 234 237 235 227 228 226 222 217 214 212 205 205 198 194 191 193 187 191 190 182 174 168 171 171 166 164 176 174 164 139 131 122 126 125 126 127
166 154 126 53 55 102 194 224 239 246 245 237 233 228 228 225 219 213 207 205 200 200 200 197 192 187 180 177 175 174 177 176 176 176 164 139 148 138 140 139 144 142 141
190 205 226 226 258 325 292 250 244 241 242 243 240 235 234 227 227 223 216 210 207 206 207 197 199 192 183 181 180 177 175 176 197 163 153 143 147 145 148 152 157 156 154
217 239 246 250 252 249 259 284 268 261 244 237 239 239 234 231 227 224 218 217 214 214 208 201 200 199 190 187 191 186 177 164 174 170 144 157 152 153 162 168 167 169 169
240 257 248 247 254 258 259 259 273 285 260 243 237 237 234 228 228 224 223 218 221 219 215 213 207 202 197 198 201 200 185 184 174 170 177 175 169 171 178 176 172 174 175
243 250 241 244 248 253 255 259 260 255 255 245 234 232 232 231 228 219 222 218 221 220 219 219 212 205 201 198 207 205 204 211 188 200 193 196 181 182 182 183 181 176 177
247 250 244 237 236 238 248 252 253 253 253 248 242 241 227 236 239 229 221 222 220 221 218 217 213 212 207 203 202 204 210 223 216 201 210 206 190 191 192 187 195 177 172
247 251 242 228 222 235 242 251 253 248 248 248 246 241 242 236 235 233 230 227 218 217 214 213 205 205 214 208 213 205 209 216 215 211 204 212 204 194 201 201 194 179 183
232 236 234 223 222 224 234 248 250 245 245 242 244 243 238 249 247 237 236 232 229 218 214 207 204 205 208 209 222 210 212 212 214 210 210 215 204 195 205 191 189 187 190
228 226 223 223 225 229 238 240 242 247 241 237 236 235 237 241 242 245 243 239 235 230 222 214 206 204 206 208 218 215 215 215 215 217 212 206 208 206 209 198 195 195 197
227 221 214 214 224 232 238 240 242 236 238 235 233 235 234 235 240 241 245 249 242 238 229 220 210 207 204 206 216 211 212 214 214 215 204 206 216 205 196 193 194 193 196
218 212 206 206 217 227 235 238 236 232 226 231 232 231 234 234 237 241 242 242 244 245 235 222 213 205 202 205 212 212 207 213 211 210 201 201 203 204 199 201 202 187 181
219 213 203 206 215 226 234 236 236 229 222 222 225 230 231 234 236 239 244 244 248 247 247 237 220 221 211 204 208 221 216 207 216 203 201 202 201 198 202 202 200 200 182
220 212 204 206 214 222 226 229 232 232 225 220 223 227 232 233 234 236 242 247 240 242 243 239 223 210 209 203 204 204 218 213 218 206 197 201 203 202 202 204 197 192 189
213 206 205 207 212 217 218 222 226 231 229 220 227 227 229 233 234 237 242 243 242 248 249 238 240 223 208 202 190 193 198 208 213 216 196 196 200 201 202 197 195 195 192
208 204 204 212 225 229 224 224 231 229 225 230 229 233 232 234 236 237 239 241 241 242 244 242 239 221 223 198 172 159 174 203 214 210 206 197 193 196 198 194 198 198 199
203 197 200 214 231 227 215 211 218 236 237 230 227 230 232 233 238 236 238 241 242 241 242 241 237 227 211 206 204 157 155 200 156 206 196 193 185 192 201 191 191 197 196
196 181 188 206 211 205 197 202 211 230 244 241 241 229 224 224 233 240 245 243 241 241 241 240 236 230 223 203 217 213 197 145 178 179 198 193 186 189 190 195 198 200 201
170 184 199 206 203 200 203 213 225 233 246 257 248 237 234 239 240 242 242 244 246 245 244 238 237 234 226 225 209 197 215 192 182 161 162 172 194 199 186 203 199 201 203
162 199 214 222 231 229 229 237 235 238 247 253 249 250 253 255 253 258 250 250 250 249 245 245 240 238 232 224 220 217 216 198 190 189 141 179 183 194 189 189 197 198 202
Height
782 784 786 788 789 790 792 793 795 796 797 799 800 801 802 804 805 806 807 809 810 812 814 816 817 819 820 820 820 822 823 823 823 824 825 826 826 827 828 829 831 831 832
782 784 787 789 790 791 793 794 796 797 798 800 801 802 803 805 807 808 809 810 812 813 815 817 818 819 821 821 822 823 825 825 826 827 827 828 829 829 830 831 833 833 834
783 786 789 790 791 793 794 795 797 798 799 801 802 804 804 806 808 809 811 812 814 814 816 817 818 820 822 822 823 824 826 827 828 829 828 830 831 832 833 833 834 836 837
784 787 789 790 792 794 795 796 798 799 800 802 803 804 806 807 809 810 812 814 815 816 817 818 819 821 822 823 824 825 827 828 830 830 830 832 834 834 834 835 837 838 839
786 788 790 791 793 794 795 797 798 799 801 802 803 805 806 808 809 811 813 814 816 817 818 819 820 822 823 824 825 826 828 829 831 831 832 834 835 835 836 837 837 839 841
786 789 790 792 793 794 796 797 798 800 801 802 804 805 807 808 809 811 813 815 816 818 819 820 821 823 823 825 826 827 829 830 832 833 834 835 837 838 838 839 840 842 843
787 790 791 792 793 794 795 797 798 799 801 802 803 805 806 808 810 811 813 815 816 817 819 820 822 823 824 826 827 828 830 831 832 834 835 836 838 840 841 841 843 844 845
788 791 792 792 793 794 795 796 797 799 800 801 803 805 806 807 808 810 812 814 816 817 819 820 822 823 825 827 828 829 830 832 833 834 835 837 839 841 842 843 844 845 847
789 791 792 793 793 794 794 795 796 797 799 800 801 803 805 806 808 809 811 813 815 817 818 820 822 824 826 828 829 830 831 832 834 835 836 838 839 841 843 844 846 846 847
789 790 791 792 793 794 794 794 794 795 796 798 800 801 803 804 806 808 811 812 814 816 818 820 822 824 826 828 830 831 832 833 835 835 837 838 840 841 843 844 845 847 847
789 790 791 792 792 793 793 794 793 794 794 796 797 799 801 803 805 807 809 811 812 815 817 819 821 823 826 828 830 831 833 834 834 836 837 838 840 842 843 844 845 847 848
786 788 789 790 791 792 792 792 793 793 794 794 796 798 799 801 802 804 806 808 811 813 816 818 820 822 824 828 829 831 832 833 833 836 837 838 840 842 843 844 846 847 848
785 786 787 788 789 789 790 791 791 792 792 793 794 795 796 798 800 802 804 805 808 811 813 816 819 821 823 826 828 830 832 831 832 834 834 837 839 841 843 844 845 847 848
783 784 785 785 786 788 788 789 789 789 790 791 792 793 795 795 798 800 801 803 805 807 810 812 815 818 821 823 825 827 829 830 831 832 832 835 838 840 841 843 845 846 848
778 781 783 784 784 784 785 787 787 788 788 789 790 791 793 794 795 797 799 800 802 804 806 808 812 815 817 820 822 824 826 827 829 831 832 834 836 838 839 842 843 845 847
774 777 779 780 782 783 783 783 784 785 786 787 788 789 791 792 794 795 796 797 799 801 803 805 807 811 813 817 819 821 823 825 827 829 832 832 835 837 838 840 842 844 847
770 773 775 777 778 779 780 781 781 781 783 784 785 787 788 789 791 793 794 795 797 798 801 802 805 808 810 814 815 817 819 822 824 826 829 832 834 836 837 839 841 842 845
766 768 771 773 775 776 777 778 779 779 779 781 783 784 786 787 788 790 791 793 794 795 796 798 800 802 806 809 813 813 815 818 819 822 825 830 832 835 836 839 841 841 843
761 764 767 769 772 773 775 775 776 776 776 777 779 782 783 785 786 787 788 789 791 792 793 794 796 798 802 804 809 813 813 815 819 818 821 825 830 833 834 838 840 842 843
757 760 763 765 768 770 770 773 774 775 774 774 776 778 781 782 783 784 786 787 788 789 791 790 793 791 796 799 804 807 814 809 817 817 815 822 827 830 833 835 839 841 844
753 756 759 762 764 766 768 770 771 772 772 771 773 774 776 779 780 781 783 784 786 787 788 789 790 790 790 794 798 805 808 811 815 817 815 818 824 827 830 833 836 840 842
749 752 755 757 761 764 765 765 768 769 769 769 769 771 773 775 776 778 780 781 782 783 785 786 787 788 790 790 792 802 804 810 813 808 816 817 820 824 829 831 834 837 840
747 749 752 755 758 760 761 763 765 767 767 767 767 768 769 771 773 774 775 777 778 779 780 781 783 784 785 787 788 789 802 801 805 808 812 811 813 819 826 829 831 835 839
746 747 750 753 755 756 757 760 763 764 765 763 763 764 765 767 769 770 771 771 773 774 775 777 778 780 782 782 786 785 787 788 796 806 807 808 810 813 820 826 828 833 836
745 747 749 751 752 752 755 757 760 760 761 760 760 761 762 763 764 765 766 767 767 768 770 771 773 774 775 778 778 781 785 784 785 795 797 803 808 812 810 817 824 829 832
746 747 749 749 749 751 753 755 755 756 757 757 758 757 758 759 759 760 760 761 762 763 764 765 766 767 769 770 773 775 777 779 782 786 789 799 802 807 807 812 819 823 827